Temperature
22 22 22 22 20 19 22 23 23 24 24 24 24 23 22 21 22 22 21 21 20 21 20 20 20 20 20 20 19 19 19 19 19 19 19 19 19 19 19 19 19 19 19 19 19 19 19 19 19
22 22 22 22 20 21 22 23 24 24 24 24 24 23 22 21 21 21 21 20 20 21 21 20 20 20 20 20 19 19 19 19 19 19 18 19 19 19 19 19 19 19 19 19 19 18 19 19 18
22 22 23 19 20 21 23 23 23 24 24 24 23 22 22 22 22 21 21 21 20 20 20 20 20 20 20 19 19 19 19 19 19 19 18 18 19 19 19 19 19 19 19 18 18 18 18 18 18
23 23 22 19 22 22 22 23 23 24 24 24 23 22 21 22 22 21 21 21 20 20 20 20 19 19 19 19 19 19 19 19 19 18 18 18 18 18 18 18 18 18 18 18 18 18 18 18 18
23 23 20 20 21 21 21 22 24 24 24 24 23 21 21 21 21 21 21 20 20 20 19 19 19 19 19 19 19 19 19 19 19 18 18 18 18 18 18 18 18 18 18 18 18 18 18 18 18
24 20 20 21 22 22 22 23 24 24 23 23 23 21 21 21 21 21 21 20 20 20 20 19 19 19 19 19 19 19 19 19 19 18 18 18 18 18 18 18 18 18 18 18 18 18 18 18 18
22 18 20 21 21 23 24 25 24 24 23 23 23 21 21 21 21 21 20 20 20 20 20 19 19 19 19 19 19 19 18 19 19 19 18 18 18 18 18 18 18 18 18 17 17 17 18 18 18
24 18 20 20 22 23 24 24 25 25 24 24 24 22 21 21 21 21 20 20 20 20 19 19 19 19 19 19 19 19 18 18 19 19 18 18 18 18 18 18 18 18 18 18 17 17 17 18 17
23 19 21 22 22 22 23 23 25 25 24 23 24 24 24 22 21 20 20 20 20 19 19 19 19 19 19 19 19 18 18 18 19 18 18 18 18 18 18 18 18 18 18 18 18 17 18 17 17
22 20 22 22 21 22 23 23 24 25 23 23 23 23 23 22 21 21 21 20 20 20 20 20 20 19 19 19 19 18 18 18 18 18 18 18 18 18 18 18 18 18 17 17 17 17 17 17 17
22 21 22 22 22 22 22 23 24 24 24 23 23 24 23 22 21 21 21 21 21 21 20 20 20 20 19 19 19 19 18 18 18 18 18 18 18 18 18 18 18 18 17 17 17 17 17 17 17
21 22 22 22 22 22 22 23 24 24 24 24 24 25 24 22 22 22 22 22 21 21 21 21 20 20 20 19 19 19 19 18 18 18 18 18 18 18 18 18 18 18 17 17 17 17 17 17 17
21 21 22 21 22 21 22 22 23 23 24 25 25 24 24 23 23 23 22 22 22 21 21 21 21 20 20 19 19 19 18 18 18 18 18 18 17 18 18 18 18 17 17 17 17 17 17 17 16
22 21 20 20 20 20 20 22 22 22 23 24 24 24 24 24 23 23 22 22 22 22 22 21 21 20 20 20 19 19 19 18 18 18 18 18 17 17 18 18 18 17 17 17 17 17 17 16 16
22 21 20 19 19 20 20 21 21 20 22 22 22 22 22 23 23 23 23 22 22 23 23 22 22 21 20 20 19 19 19 18 18 18 18 18 17 17 17 18 18 17 17 16 16 16 16 16 16
21 20 20 20 19 20 21 21 21 21 21 21 21 21 21 21 22 23 23 22 23 23 23 23 22 21 20 20 20 19 19 18 18 18 18 17 17 17 17 17 17 17 17 17 16 16 16 16 16
19 19 20 20 19 19 20 20 20 21 20 20 21 21 21 21 22 22 22 23 23 23 23 22 22 22 21 20 20 19 19 18 18 18 18 17 17 17 17 17 17 17 17 17 17 16 16 16 16
20 19 19 19 19 19 18 18 18 20 19 19 19 20 20 21 22 22 22 23 23 23 23 22 22 22 21 20 20 19 19 18 18 18 18 17 17 17 17 17 17 17 17 17 17 17 16 16 16
20 19 18 18 19 18 17 17 17 18 17 17 17 18 19 20 21 22 22 23 23 23 23 23 22 22 21 20 20 20 19 19 18 18 17 17 17 17 17 17 17 17 17 17 17 17 16 16 16
18 18 18 18 18 18 16 16 16 16 16 15 15 15 16 18 20 21 22 23 23 23 24 23 23 22 22 21 20 20 20 19 18 18 17 17 17 17 17 17 17 17 17 17 17 16 16 16 16
17 17 18 18 17 17 16 16 15 15 15 15 15 14 15 16 17 20 21 23 23 23 23 23 23 22 21 21 20 20 19 19 18 18 17 17 17 17 17 17 17 17 17 17 16 16 16 16 16
17 17 17 17 16 15 16 14 15 13 13 15 15 15 14 14 16 18 19 21 22 22 21 21 21 21 20 20 20 20 20 19 18 17 17 17 17 17 17 17 17 17 16 16 16 16 15 15 15
17 16 15 15 15 14 14 14 14 12 13 14 14 14 14 13 14 16 17 18 19 20 19 19 19 20 19 19 19 19 19 19 18 17 17 17 17 17 17 17 17 16 16 16 16 15 15 15 15
17 16 15 13 13 14 15 14 14 13 13 13 14 14 14 13 14 15 16 17 17 18 18 18 19 19 18 18 18 18 18 18 18 17 17 17 17 17 17 17 16 16 16 16 15 15 15 15 15
15 14 13 14 13 13 15 14 14 14 14 14 14 13 13 13 13 14 16 16 16 16 17 17 18 18 17 17 17 17 17 18 17 17 17 17 17 17 17 16 16 16 16 15 15 15 15 15 15
13 14 13 13 13 13 15 14 13 14 14 13 13 13 12 13 13 14 15 16 16 15 15 16 17 16 16 16 16 16 17 17 17 17 17 16 16 16 16 16 16 16 15 15 15 14 14 14 14
12 11 11 11 12 13 13 13 14 13 13 13 12 12 12 12 13 14 14 14 14 14 14 14 15 15 15 15 15 16 17 17 17 16 16 16 16 16 16 16 16 15 15 14 15 15 14 14 14
11 10 9 10 12 12 13 12 12 11 11 12 11 11 11 12 13 14 14 13 13 13 13 13 14 14 15 15 15 16 17 17 17 17 17 16 16 16 16 16 15 15 15 14 14 14 14 14 14
10 10 10 10 10 11 12 12 12 11 11 11 11 11 11 11 12 14 14 14 14 14 14 14 14 15 15 15 16 17 17 17 17 17 17 17 16 16 16 15 15 15 14 14 14 14 14 14 14
10 10 10 10 11 11 11 11 12 11 11 11 11 11 11 11 13 14 14 14 14 15 15 15 15 15 15 16 16 17 17 17 18 18 17 17 17 17 16 15 15 14 14 14 14 13 13 13 14
Wind_Speed
5 3 4 4 5 6 2 3 2 2 3 2 3 7 8 5 2 2 2 9 11 12 11 15 15 13 12 12 12 13 12 13 13 14 14 14 13 12 11 11 11 10 9 8 8 9 8 8 8
2 2 4 5 5 3 4 3 3 2 5 5 4 5 5 3 2 6 6 7 13 13 12 13 16 15 13 13 13 13 13 13 13 14 14 13 12 11 10 10 10 10 9 8 8 9 9 9 8
1 3 4 5 5 3 3 4 4 2 5 2 4 4 4 4 5 7 7 11 11 9 11 13 16 15 14 13 13 13 13 13 13 14 13 12 12 11 10 9 9 10 9 9 9 9 9 9 9
3 4 5 6 4 2 3 3 3 3 2 3 5 4 3 2 7 6 11 13 12 9 10 12 16 14 14 13 13 13 13 13 14 14 13 13 12 11 9 8 10 10 9 9 9 10 9 10 10
4 5 6 4 3 4 5 5 4 5 3 3 4 5 3 3 7 11 13 13 11 8 9 11 15 14 13 13 13 13 14 14 14 14 13 13 12 11 9 9 9 9 9 9 9 10 9 9 10
5 5 5 2 5 5 4 4 2 5 4 4 5 5 2 2 7 11 11 10 9 10 9 11 14 14 14 14 14 14 14 14 14 13 13 12 12 11 10 9 8 7 7 7 7 8 8 8 8
5 5 4 1 3 5 4 5 1 3 5 6 6 5 3 3 5 9 9 8 8 7 7 9 13 14 15 14 14 14 14 14 13 13 13 12 11 11 10 8 7 6 5 4 5 6 7 7 7
6 6 4 1 1 4 5 6 2 5 3 5 5 8 6 6 7 8 8 7 7 7 7 5 9 11 11 13 15 15 15 15 14 13 12 12 11 10 10 8 6 5 5 3 3 5 6 7 7
4 5 1 2 2 4 4 5 4 3 6 2 1 6 6 13 11 9 6 5 6 7 6 6 6 7 9 10 13 14 14 15 14 13 12 11 9 9 9 8 6 6 5 3 3 3 5 8 8
5 3 5 5 5 4 3 3 4 3 4 2 3 4 10 15 14 12 9 9 8 9 8 7 7 6 8 9 9 10 11 12 11 11 10 9 8 8 8 9 8 7 5 2 1 2 5 7 8
3 4 4 3 4 2 2 3 3 4 4 5 7 10 13 13 13 13 12 10 10 9 10 9 8 6 6 4 6 7 8 9 10 10 11 10 8 7 7 5 5 5 6 4 4 5 4 4 6
1 3 3 4 3 2 3 4 4 1 4 6 8 14 15 17 17 17 15 12 9 9 10 10 9 7 6 6 5 6 6 7 7 10 11 9 5 5 5 5 5 4 5 4 3 2 1 3 6
3 2 1 4 5 4 5 4 3 3 7 7 9 13 14 17 16 14 11 11 10 11 11 10 9 8 7 5 4 4 5 7 9 10 11 11 5 4 4 5 5 5 5 4 3 3 6 6 6
3 2 3 5 6 5 5 5 2 3 8 4 9 14 13 13 12 10 9 10 11 12 12 11 11 9 8 7 6 5 5 7 9 9 11 12 8 6 4 3 4 5 6 5 4 4 4 4 5
1 1 3 3 5 3 4 6 1 4 7 6 2 5 8 10 11 12 12 12 12 10 11 13 12 11 10 8 8 5 6 8 7 8 11 11 10 9 6 4 4 5 7 6 4 4 3 3 3
3 3 3 3 3 4 3 6 2 0 3 5 6 6 6 6 9 10 11 11 11 9 10 12 12 12 11 8 7 4 6 7 7 9 10 11 12 10 7 4 5 7 8 6 4 4 3 2 3
4 1 2 5 1 4 3 7 6 2 3 7 8 8 8 8 9 9 12 14 13 13 11 12 11 13 12 10 7 5 5 5 7 9 9 11 12 12 8 5 5 7 5 4 5 3 3 3 3
3 2 3 5 2 3 4 8 11 8 6 8 8 8 9 10 12 10 11 16 16 14 13 12 10 11 11 8 5 5 4 4 4 5 7 10 11 11 9 5 6 7 5 5 5 4 2 3 4
2 3 5 5 2 1 5 8 11 11 11 12 10 8 9 10 10 11 10 13 16 16 15 15 13 10 10 6 5 5 4 4 3 4 5 8 9 10 7 3 4 5 6 7 7 4 3 2 3
3 2 5 4 2 1 5 7 6 8 12 14 15 14 12 10 10 10 13 10 14 16 16 16 15 12 11 8 5 3 4 3 3 2 3 6 8 8 6 5 5 6 5 6 7 5 4 2 3
2 4 5 4 2 3 4 6 5 7 8 14 16 15 15 13 11 11 12 11 10 12 13 12 12 9 5 4 4 4 4 3 3 2 2 3 6 8 7 7 5 6 6 6 7 6 7 5 3
5 4 3 2 1 3 3 5 5 8 11 18 19 18 19 19 14 10 9 7 5 6 9 11 12 12 8 4 4 4 4 4 4 3 3 3 6 7 8 8 6 7 6 6 7 7 5 5 4
2 5 4 3 2 3 2 2 6 7 11 17 17 18 19 19 17 12 10 8 4 4 9 11 13 14 10 4 3 3 2 2 2 3 4 4 4 5 7 7 6 7 6 7 6 6 6 5 5
3 4 5 5 4 2 4 3 3 6 10 15 16 18 18 18 16 14 12 10 8 6 7 9 12 14 9 4 2 4 4 4 4 4 5 4 3 4 5 6 5 6 5 6 6 7 7 7 6
8 4 4 4 1 6 2 4 1 5 8 11 14 16 17 15 14 13 12 10 8 6 5 8 13 14 8 2 3 5 5 6 6 5 5 4 3 3 4 5 5 5 5 5 5 6 5 6 6
6 1 3 4 5 4 1 2 2 6 8 9 11 13 16 16 13 11 10 9 7 6 5 9 13 12 7 4 4 3 4 4 3 3 2 2 2 2 3 5 6 5 5 5 5 4 4 5 6
7 5 2 3 4 3 2 3 4 12 15 16 17 16 17 16 15 12 11 9 9 8 8 10 12 8 2 5 4 2 1 1 1 1 0 1 2 2 4 5 5 5 5 5 5 4 4 5 5
4 3 5 2 3 4 1 3 6 14 18 19 19 18 17 16 15 12 9 8 8 8 9 8 6 2 4 5 1 2 3 3 3 2 2 2 2 1 2 3 4 4 5 5 5 3 3 4 4
7 6 4 3 2 2 1 3 5 9 12 15 17 17 16 15 13 9 6 5 6 7 7 4 2 4 5 2 4 6 4 5 5 4 3 3 3 3 3 4 4 5 5 4 4 3 3 4 3
2 3 3 3 1 1 1 1 4 8 11 13 16 16 15 13 11 6 3 3 3 2 2 4 5 5 4 5 6 6 5 5 5 5 5 4 5 5 5 5 5 5 5 5 5 5 4 4 3
Wind_Direction
330 67 104 68 54 51 30 286 265 321 57 29 74 97 103 100 145 170 138 141 144 155 171 166 161 158 160 156 153 152 148 140 136 132 128 124 121 119 118 115 111 107 101 100 105 105 97 91 94
326 128 68 63 78 62 319 310 289 238 146 150 83 83 88 98 132 129 139 155 152 157 166 167 165 164 163 158 158 155 149 146 141 139 134 131 130 130 123 117 113 109 103 97 96 100 96 87 81
342 72 84 72 86 144 300 332 303 338 145 134 77 60 92 148 156 158 159 147 148 154 160 169 169 168 164 162 160 157 152 149 145 142 139 137 136 134 129 129 123 114 107 98 90 89 89 84 72
92 55 56 69 74 226 251 290 292 132 195 77 101 75 49 133 162 154 142 146 151 152 159 175 174 174 168 166 163 159 154 151 148 146 143 139 136 131 127 132 131 124 115 102 87 79 75 73 66
63 79 63 53 342 281 261 271 220 183 183 92 111 109 70 38 117 131 142 150 153 148 159 176 179 179 173 169 168 162 156 154 152 150 147 142 137 131 127 127 132 132 123 107 91 81 73 66 64
53 63 81 65 317 306 288 292 257 161 147 135 125 111 76 121 128 142 146 150 155 156 160 176 181 181 177 172 169 164 162 159 155 154 150 145 141 136 132 128 132 133 126 113 96 84 74 59 50
97 82 107 114 327 340 342 340 321 150 151 170 146 109 106 170 151 140 140 141 148 157 164 175 176 179 179 174 171 170 166 163 159 156 154 150 148 143 140 138 138 141 141 128 98 84 74 58 40
119 102 91 58 2 313 312 330 282 164 152 139 137 144 176 184 145 128 123 131 142 150 156 158 165 171 173 172 174 175 171 165 163 159 158 155 155 152 148 146 150 157 154 141 94 72 64 62 50
93 77 128 218 207 274 310 334 341 110 113 118 181 175 171 140 139 128 118 125 143 152 151 153 154 162 164 167 177 175 172 169 164 161 162 159 155 151 146 150 160 158 151 132 97 74 68 65 62
77 131 216 210 198 220 296 291 306 102 114 127 72 82 129 143 158 163 169 169 168 175 176 168 166 164 163 172 171 165 165 165 156 154 152 150 150 150 149 166 168 161 151 126 90 57 67 71 63
99 187 244 248 223 227 281 293 313 142 175 197 192 165 151 162 173 182 184 181 184 181 183 180 176 168 163 161 156 156 154 151 152 152 151 151 147 150 150 164 170 149 132 90 40 18 39 87 87
138 262 277 323 344 334 309 320 352 116 239 274 218 172 164 173 185 192 193 191 182 176 189 183 182 175 168 159 158 157 155 153 152 157 161 158 150 149 155 167 166 133 122 123 87 17 82 138 116
208 248 293 352 12 351 329 298 281 268 302 303 165 168 179 185 194 200 200 195 185 184 190 182 177 175 167 158 164 168 163 162 159 163 172 172 162 155 169 181 174 147 145 150 130 124 130 130 124
241 162 61 21 4 2 343 304 242 294 330 327 173 180 188 194 198 198 201 202 201 195 189 180 176 174 169 172 176 174 162 158 160 172 183 184 180 172 173 181 175 156 163 165 149 139 132 129 132
359 63 40 24 349 340 328 309 260 350 345 359 302 224 202 200 199 204 206 208 209 207 193 183 179 172 174 178 184 178 171 163 167 182 193 191 192 184 177 175 181 171 169 167 149 125 115 115 120
57 37 323 319 6 330 354 293 315 34 7 332 327 323 299 256 228 215 209 214 210 203 196 192 184 174 178 181 184 175 173 170 175 186 195 197 198 189 177 181 195 180 167 165 156 143 136 141 142
37 16 298 309 19 0 10 279 288 338 313 290 290 297 306 307 287 251 220 216 215 206 194 194 188 175 179 180 177 168 169 178 183 187 191 198 203 199 190 196 198 181 167 168 174 161 158 164 161
240 231 261 279 321 1 315 285 301 333 323 301 299 303 301 293 285 279 251 224 215 207 192 189 190 176 170 164 154 157 170 186 186 192 196 197 199 196 193 202 195 178 168 171 177 174 162 148 149
173 199 254 270 326 331 293 295 321 346 354 341 327 305 293 285 279 285 277 245 222 205 192 185 182 175 166 159 165 170 183 184 193 202 197 196 197 193 190 183 174 174 176 174 169 164 166 144 135
128 224 267 287 11 295 307 306 7 8 22 8 359 346 325 305 296 294 288 262 229 211 196 185 180 177 179 176 156 145 144 155 163 166 188 192 188 188 189 176 178 176 161 156 166 165 158 149 149
227 221 246 263 349 43 340 320 11 348 6 8 5 356 351 337 317 310 302 275 234 210 194 179 163 151 144 130 115 99 95 95 118 155 180 170 172 174 170 173 170 176 170 177 185 179 169 169 178
277 287 233 198 56 309 18 300 331 337 350 7 4 2 360 354 343 332 333 320 266 197 156 143 134 121 109 120 166 180 173 177 184 169 165 155 160 165 170 171 171 174 178 185 194 189 180 163 172
338 33 53 49 105 337 344 226 311 346 0 358 358 0 359 358 357 356 360 359 18 100 124 128 125 115 113 130 183 209 170 148 140 144 164 166 167 175 178 175 175 181 187 189 182 177 186 185 181
33 29 40 45 69 293 242 181 333 7 347 345 352 356 355 354 356 3 8 13 22 51 95 114 114 102 101 121 180 207 175 163 168 177 178 179 179 185 185 177 181 188 190 188 183 183 191 198 196
18 23 342 325 336 246 205 149 101 24 358 349 347 349 349 349 351 359 15 14 17 34 74 101 97 88 76 70 219 214 193 183 191 195 195 189 183 183 183 173 185 188 189 188 186 185 192 196 206
337 26 208 250 237 264 205 152 121 26 357 349 346 345 346 346 346 352 11 18 21 27 55 91 87 80 52 346 265 213 184 187 202 206 207 205 189 166 163 177 184 185 184 196 196 193 195 194 209
358 353 311 251 265 255 281 32 31 359 355 351 349 347 342 339 340 348 4 19 30 42 56 88 91 85 26 271 250 187 165 117 53 50 160 201 199 188 172 171 176 184 194 199 189 204 214 205 216
42 349 15 3 256 238 214 57 4 350 344 340 341 338 330 331 334 342 360 21 28 45 60 69 87 135 242 246 202 66 51 74 104 124 152 203 219 187 151 152 165 173 187 192 190 212 228 226 226
3 5 343 295 258 244 181 86 14 336 332 331 329 327 324 326 325 326 343 8 31 43 40 29 305 265 251 201 108 92 103 129 135 139 153 174 181 175 183 189 187 190 194 196 198 219 223 232 241
2 317 296 291 319 68 147 121 331 336 334 334 331 329 332 332 325 308 266 236 225 189 215 250 243 228 192 137 117 123 142 154 168 179 185 181 176 174 184 190 199 208 204 201 206 219 222 221 222
Height
1496 1495 1495 1497 1501 1512 1513 1507 1502 1500 1500 1499 1499 1499 1501 1505 1508 1512 1508 1508 1510 1512 1514 1517 1519 1522 1524 1525 1527 1529 1530 1531 1532 1533 1533 1535 1536 1537 1537 1538 1539 1540 1540 1541 1541 1541 1542 1543 1544
1495 1495 1497 1498 1509 1523 1517 1505 1502 1499 1499 1500 1500 1501 1502 1503 1504 1505 1506 1508 1510 1513 1515 1518 1520 1522 1524 1526 1528 1529 1531 1532 1533 1534 1535 1536 1537 1538 1538 1539 1540 1541 1541 1542 1542 1542 1543 1543 1544
1495 1496 1498 1501 1513 1520 1514 1505 1503 1499 1500 1500 1501 1502 1503 1504 1505 1505 1507 1508 1511 1514 1516 1519 1521 1523 1525 1527 1528 1530 1531 1533 1534 1536 1537 1538 1538 1539 1539 1540 1541 1542 1543 1543 1543 1544 1544 1544 1545
1496 1497 1499 1507 1513 1511 1507 1503 1501 1501 1501 1500 1501 1503 1504 1506 1506 1507 1508 1510 1512 1515 1517 1520 1522 1524 1525 1527 1529 1530 1532 1533 1535 1536 1537 1538 1539 1540 1541 1541 1542 1543 1544 1545 1545 1545 1546 1546 1547
1496 1496 1505 1514 1512 1507 1503 1501 1500 1501 1501 1501 1501 1503 1505 1506 1507 1508 1509 1511 1513 1515 1518 1520 1522 1524 1526 1527 1529 1530 1532 1534 1535 1536 1538 1539 1540 1541 1542 1542 1543 1544 1545 1546 1546 1547 1547 1548 1549
1496 1498 1514 1518 1512 1505 1501 1499 1499 1500 1501 1501 1502 1504 1506 1507 1508 1509 1511 1512 1514 1516 1518 1520 1522 1524 1526 1527 1529 1530 1532 1534 1536 1537 1538 1540 1541 1542 1542 1543 1544 1545 1545 1546 1547 1547 1548 1549 1550
1497 1504 1513 1513 1512 1505 1499 1498 1498 1499 1501 1501 1501 1503 1505 1507 1509 1510 1512 1513 1515 1517 1519 1520 1522 1524 1525 1527 1529 1530 1532 1534 1536 1537 1539 1540 1542 1542 1543 1544 1545 1546 1547 1547 1548 1549 1549 1550 1551
1496 1503 1512 1513 1511 1506 1499 1498 1498 1498 1500 1502 1502 1502 1503 1506 1509 1511 1512 1513 1515 1517 1518 1520 1521 1523 1525 1527 1528 1530 1532 1534 1536 1537 1539 1541 1542 1543 1543 1544 1546 1547 1548 1549 1549 1550 1550 1550 1551
1497 1507 1513 1509 1508 1504 1500 1499 1499 1499 1500 1501 1501 1502 1502 1505 1508 1510 1511 1512 1514 1516 1518 1519 1521 1523 1525 1526 1528 1530 1532 1534 1535 1537 1539 1541 1542 1543 1543 1545 1546 1548 1549 1549 1550 1550 1551 1551 1552
1497 1509 1506 1501 1500 1500 1499 1500 1499 1500 1500 1501 1500 1501 1502 1504 1506 1508 1509 1511 1512 1514 1516 1518 1520 1522 1524 1525 1527 1529 1531 1534 1536 1537 1539 1541 1542 1543 1544 1545 1546 1548 1549 1550 1550 1551 1551 1552 1553
1498 1502 1499 1498 1498 1499 1499 1499 1498 1498 1499 1499 1498 1498 1501 1503 1505 1506 1508 1510 1512 1514 1516 1517 1519 1521 1523 1524 1526 1529 1531 1533 1536 1538 1539 1541 1542 1543 1544 1545 1546 1547 1548 1549 1551 1552 1552 1552 1553
1500 1499 1499 1499 1499 1499 1499 1499 1498 1497 1497 1497 1497 1498 1498 1501 1502 1504 1506 1508 1511 1513 1515 1517 1519 1520 1522 1524 1526 1528 1530 1532 1535 1537 1539 1540 1542 1543 1543 1544 1545 1546 1547 1549 1551 1552 1553 1553 1553
1500 1500 1500 1500 1499 1499 1499 1498 1498 1497 1496 1495 1495 1497 1498 1499 1501 1503 1505 1508 1509 1511 1514 1516 1519 1520 1521 1523 1525 1528 1530 1532 1534 1536 1538 1540 1541 1543 1543 1544 1545 1546 1547 1549 1550 1551 1552 1554 1554
1499 1499 1500 1500 1500 1500 1500 1498 1497 1495 1495 1494 1494 1495 1496 1498 1500 1503 1505 1506 1508 1510 1512 1515 1517 1520 1521 1523 1524 1526 1529 1531 1532 1534 1537 1539 1541 1543 1544 1545 1545 1546 1548 1549 1550 1552 1552 1553 1554
1499 1500 1502 1502 1502 1501 1501 1500 1498 1497 1496 1495 1495 1496 1496 1497 1499 1500 1502 1504 1507 1508 1511 1513 1515 1518 1520 1522 1524 1526 1527 1529 1531 1533 1536 1538 1540 1542 1544 1545 1546 1548 1549 1550 1550 1551 1552 1553 1553
1500 1505 1509 1504 1502 1502 1505 1507 1498 1497 1497 1497 1496 1497 1497 1497 1497 1498 1500 1503 1505 1507 1509 1511 1513 1515 1518 1521 1523 1525 1527 1528 1530 1532 1535 1537 1539 1541 1543 1544 1546 1547 1548 1549 1550 1551 1552 1552 1553
1507 1512 1511 1506 1502 1502 1504 1505 1498 1498 1498 1498 1497 1497 1497 1497 1497 1498 1499 1500 1502 1503 1506 1508 1510 1513 1516 1519 1521 1523 1525 1527 1529 1531 1533 1535 1537 1539 1541 1543 1545 1546 1547 1548 1549 1550 1551 1552 1553
1512 1512 1512 1509 1503 1503 1505 1505 1498 1499 1499 1498 1497 1496 1495 1495 1494 1495 1495 1496 1497 1499 1502 1505 1508 1510 1514 1517 1519 1521 1523 1525 1527 1529 1531 1534 1535 1537 1539 1541 1543 1544 1545 1546 1547 1548 1549 1550 1551
1505 1510 1513 1509 1504 1505 1507 1507 1503 1501 1499 1497 1496 1495 1493 1491 1490 1490 1489 1489 1490 1493 1495 1499 1503 1507 1511 1513 1515 1518 1520 1523 1525 1527 1529 1531 1533 1535 1536 1538 1540 1541 1543 1544 1545 1546 1548 1548 1549
1508 1513 1513 1509 1505 1506 1509 1508 1507 1504 1504 1502 1499 1494 1491 1488 1487 1486 1485 1483 1483 1485 1488 1492 1496 1502 1507 1510 1514 1516 1518 1521 1523 1525 1527 1529 1531 1532 1534 1535 1537 1539 1540 1541 1542 1544 1545 1546 1547
1510 1513 1511 1510 1507 1508 1511 1511 1510 1506 1505 1502 1498 1494 1489 1486 1484 1482 1480 1479 1478 1479 1482 1486 1490 1497 1504 1509 1513 1515 1516 1518 1520 1522 1524 1527 1528 1530 1531 1533 1535 1537 1538 1539 1540 1541 1542 1543 1545
1514 1508 1508 1509 1513 1518 1516 1526 1514 1511 1506 1502 1499 1494 1490 1484 1480 1478 1476 1475 1475 1476 1478 1481 1484 1491 1501 1508 1511 1513 1514 1515 1518 1520 1522 1524 1526 1528 1529 1530 1531 1533 1535 1536 1537 1537 1538 1540 1541
1511 1510 1511 1513 1516 1521 1520 1525 1521 1514 1512 1507 1503 1498 1493 1487 1481 1478 1475 1473 1472 1474 1475 1477 1481 1487 1497 1506 1509 1512 1513 1514 1516 1518 1519 1521 1523 1525 1526 1526 1527 1529 1531 1532 1533 1533 1535 1536 1536
1511 1512 1516 1521 1524 1529 1519 1525 1523 1520 1519 1512 1506 1502 1496 1489 1483 1479 1476 1474 1473 1473 1473 1475 1479 1483 1494 1503 1507 1510 1512 1513 1515 1516 1517 1518 1519 1521 1522 1523 1524 1525 1527 1528 1528 1529 1530 1531 1531
1518 1524 1533 1531 1535 1531 1516 1521 1524 1520 1517 1515 1510 1504 1498 1492 1485 1480 1477 1476 1475 1474 1473 1473 1475 1479 1491 1499 1505 1509 1511 1512 1512 1513 1514 1515 1517 1519 1520 1521 1523 1523 1523 1524 1524 1525 1526 1526 1526
1526 1527 1538 1540 1536 1528 1516 1522 1523 1519 1517 1515 1511 1506 1499 1492 1486 1481 1477 1476 1475 1475 1473 1471 1473 1480 1489 1498 1503 1507 1509 1510 1511 1513 1514 1515 1516 1517 1518 1520 1521 1521 1521 1521 1521 1521 1521 1521 1522
1533 1534 1533 1536 1531 1529 1524 1523 1519 1516 1514 1511 1508 1504 1499 1493 1487 1483 1478 1476 1475 1475 1473 1470 1473 1482 1491 1498 1502 1506 1508 1510 1512 1512 1513 1513 1514 1515 1516 1517 1518 1518 1518 1518 1517 1517 1516 1517 1517
1537 1537 1540 1539 1537 1534 1526 1528 1529 1524 1520 1514 1509 1505 1500 1494 1489 1485 1481 1479 1478 1478 1477 1478 1481 1488 1495 1499 1502 1504 1506 1508 1509 1510 1510 1510 1511 1512 1513 1514 1516 1516 1516 1516 1515 1514 1513 1514 1514
1542 1541 1540 1539 1538 1536 1532 1534 1529 1528 1524 1519 1512 1506 1501 1495 1490 1487 1485 1483 1483 1482 1483 1486 1490 1494 1497 1499 1501 1503 1505 1507 1507 1507 1507 1507 1508 1508 1510 1511 1513 1513 1513 1513 1513 1512 1511 1511 1511
1542 1542 1541 1540 1535 1535 1536 1538 1528 1528 1524 1519 1512 1506 1500 1495 1490 1488 1487 1487 1487 1487 1488 1490 1492 1493 1495 1497 1500 1502 1503 1504 1504 1504 1504 1505 1505 1505 1507 1508 1509 1510 1510 1511 1511 1511 1510 1509 1509